Weather History for Rapid City, SD

Change the Weather History Date:

Thursday, July 10, 2014

  Actual Average Record
Temperature  
Mean Temperature 70 °F 72 °F  
Max Temperature 84 °F 87 °F 103 °F (1966)
Min Temperature 56 °F 58 °F 46 °F (1999)
Degree Days  
Heating Degree Days 0 1  
Month to date heating degree days 7 10  
Since 1 June heating degree days 135 109  
Since 1 July heating degree days 7 10  
Cooling Degree Days 5 8  
Month to date cooling degree days 44 67  
Year to date cooling degree days 86 166  
Since 1 June cooling degree days 66 151  
Growing Degree Days 22 (Base 50)    
Moisture  
Dew Point 61 °F    
Average Humidity 72    
Maximum Humidity 97    
Minimum Humidity 47    
Precipitation  
Precipitation 0.03 in 0.05 in 0.81 in (1991)
Month to date precipitation 0.17 0.53  
Year to date precipitation 10.81 9.75  
Snow  
Snow 0.00 in 0.00 in - ()
Month to date snowfall 0.0 0.0  
Since 1 June snowfall 0.0 0.0  
Since 1 July snowfall 0.0 0.0  
Snow Depth 0.00 in    
Sea Level Pressure  
Sea Level Pressure 29.84 in    
Wind  
Wind Speed 7 mph (SW)    
Max Wind Speed 15 mph    
Max Gust Speed 17 mph    
Visibility 10 miles    
Events Rain , Thunderstorm    
T = Trace of Precipitation, MM = Missing Value Source: NWS Daily Summary

Daily Weather History Graph

Daily Weather History Graph

Search for Another Location

Airport:

Trip Planner

Search our weather history database for the weather conditions in past years. The results will help you decide how hot, cold, wet, or windy it might be!

Date:

Astronomy

Jul. 10, 2014 Rise Set
Actual Time 5:19 AM MDT 8:35 PM MDT
Civil Twilight 4:43 AM MDT 9:11 PM MDT
Nautical Twilight 3:57 AM MDT 9:57 PM MDT
Astronomical Twilight 3:00 AM MDT 10:53 PM MDT
Moon 6:48 PM MDT (7/10) 3:34 AM MDT (7/10)
Length of Visible Light 16h 27m
Length of Day
15h 16m
Waxing Gibbous, 96% of the Moon is Illuminated
Jul 10
Waxing Gibbous
Jul 12
Full
Jul 18
Last Quarter
Jul 26
New
Aug 3
First Quarter

Hourly Weather History & Observations

Time (MDT) Temp. Heat Index Dew Point Humidity Pressure Visibility Wind Dir Wind Speed Gust Speed Precip Events Conditions
12:52 AM 60.1 °F - 55.9 °F 86% 29.91 in 10.0 mi South 4.6 mph - N/A   Clear
1:52 AM 57.9 °F - 55.0 °F 90% 29.88 in 10.0 mi ESE 4.6 mph - N/A   Clear
2:52 AM 57.0 °F - 55.0 °F 93% 29.88 in 10.0 mi Calm Calm - N/A   Clear
3:52 AM 60.8 °F - 57.2 °F 88% 29.94 in 10.0 mi Calm Calm - N/A Rain Light Rain
4:52 AM 61.0 °F - 59.0 °F 93% 29.82 in 10.0 mi ESE 11.5 mph - 0.00 in   Partly Cloudy
5:52 AM 61.0 °F - 57.9 °F 90% 29.79 in 10.0 mi SE 10.4 mph - N/A   Clear
6:52 AM 60.8 °F - 59.0 °F 94% 29.87 in 9.0 mi SE 6.9 mph - N/A   Clear
7:52 AM 62.1 °F - 60.1 °F 93% 29.81 in 10.0 mi South 10.4 mph - N/A   Clear
8:52 AM 68.0 °F - 62.1 °F 81% 29.82 in 10.0 mi SSW 8.1 mph - N/A   Clear
9:52 AM 73.9 °F - 64.0 °F 71% 29.82 in 10.0 mi SE 10.4 mph - N/A   Clear
10:52 AM 77.0 °F - 64.0 °F 64% 29.83 in 10.0 mi Calm Calm - N/A   Clear
11:52 AM 80.1 °F 80.7 °F 59.0 °F 48% 29.82 in 10.0 mi NNW 9.2 mph - N/A   Clear
12:52 PM 82.0 °F 83.1 °F 63.0 °F 52% 29.81 in 10.0 mi WNW 8.1 mph - N/A   Clear
1:52 PM 78.1 °F - 62.1 °F 58% 29.82 in 10.0 mi NNW 6.9 mph - N/A   Clear
2:45 PM 73.0 °F - 64.9 °F 76% 29.89 in 10.0 mi WNW 4.6 mph - 0.00 in Rain , Thunderstorm Light Thunderstorms and Rain
2:52 PM 73.0 °F - 66.0 °F 79% 29.85 in 10.0 mi West 9.2 mph - 0.01 in Rain , Thunderstorm Light Thunderstorms and Rain
3:16 PM 77.0 °F - 66.0 °F 69% 29.87 in 10.0 mi Calm Calm - 0.00 in   Scattered Clouds
3:38 PM 73.0 °F - 66.9 °F 81% 29.89 in 10.0 mi West 9.2 mph - 0.00 in Thunderstorm Clear
3:52 PM 72.0 °F - 64.0 °F 76% 29.85 in 10.0 mi West 9.2 mph - 0.00 in   Partly Cloudy
4:52 PM 82.0 °F 82.7 °F 61.0 °F 49% 29.80 in 10.0 mi WSW 4.6 mph - N/A   Clear
5:52 PM 77.0 °F - 62.1 °F 60% 29.78 in 10.0 mi SW 4.6 mph - N/A   Clear
6:52 PM 79.0 °F - 62.1 °F 56% 29.80 in 10.0 mi SW 6.9 mph - N/A   Clear
7:52 PM 77.0 °F - 62.1 °F 60% 29.82 in 10.0 mi SSW 6.9 mph - N/A   Clear
8:52 PM 73.9 °F - 63.0 °F 68% 29.85 in 10.0 mi South 9.2 mph - N/A   Mostly Cloudy
9:52 PM 72.0 °F - 62.1 °F 71% 29.84 in 10.0 mi SW 5.8 mph - N/A   Clear
10:52 PM 72.0 °F - 61.0 °F 68% 29.83 in 10.0 mi WSW 5.8 mph - N/A   Clear
11:52 PM 69.8 °F - 60.8 °F 73% 29.92 in 10.0 mi WNW 6.9 mph - N/A   Clear